User: anonymous   Login
Location: Bakov nad Jizerou
(50.4784°N, 14.9394°E)
Time: 06:18:38
(UTC+00:00)
Language:

ATLAS 3B R/B - Orbit

View from above orbital plane
View from above orbital plane
View from above satellite
View from above satellite

Ground track
Ground track

The orbit data is extracted from the following two-line orbital elements,

1 28538U 05004B   21297.80333336 0.00000000  00000-0  00000-0 0    08
2 28538  63.8255 247.2692 0138186   0.9177 359.0823 13.43148293    08
Epoch (UTC): 24 October 2021 19:16:48
Eccentricity: 0.0138186
inclination: 63.8255°
perigee height: 994 km
apogee height: 1201 km
right ascension of ascending node: 247.2692°
argument of perigee: 0.9177°
revolutions per day: 13.43148293
mean anomaly at epoch: 359.0823°
orbit number at epoch: 0

The dashed part of the orbit path shows where the satellite is in the earth's shadow,  

DLR